AMOS-4

Last updated on Jan. 29, 2020, 4:37 a.m. UTC

1 39237U 13045A   20028.79951559  .00000006  00000-0  00000-0 0  9995
2 39237   0.0139  82.4594 0001727 256.2667 141.5963  1.00271901 23580
UTC
Height (km)
Latitude
Longitude
Inclination
Orbital Period
UTC large
Height (km)
Speed (km/s)
/
Latitude / Longitude
Inclination (degrees)
Orbital Period (minutes)
Azimuth
Elevation
Range (km)
Doppler Factor
iOS Compass Heading
iOS Angle

Next 30 passes for location: Hong Kong

Rise time Rise Azimuth (degrees) Set time Set Azimuth (degrees) Duration Max altitude (degrees)

No matching passes for this satellites